TimeEST,TemperatureF,Dew PointF,Humidity,Sea Level PressureIn,VisibilityMPH,Wind Direction,Wind SpeedMPH,Gust SpeedMPH,PrecipitationIn,Events,Conditions,WindDirDegrees,DateUTC
12:15 AM,42.8,42.8,100,30.13,10.0,Calm,Calm,-,N/A,,Mostly Cloudy,0,2013-11-03 04:15:00
12:35 AM,42.8,42.8,100,30.13,10.0,Calm,Calm,-,N/A,,Overcast,0,2013-11-03 04:35:00
12:55 AM,42.8,42.8,100,30.13,10.0,Calm,Calm,-,N/A,,Overcast,0,2013-11-03 04:55:00
1:15 AM,42.8,42.8,100,30.14,10.0,WNW,4.6,-,N/A,,Overcast,290,2013-11-03 05:15:00
1:35 AM,42.8,41.0,93,30.15,10.0,WNW,4.6,-,N/A,,Mostly Cloudy,290,2013-11-03 05:35:00
1:55 AM,42.8,41.0,93,30.15,10.0,WNW,3.5,-,N/A,,Scattered Clouds,300,2013-11-03 05:55:00
1:15 AM,42.8,41.0,93,30.16,10.0,Calm,Calm,-,N/A,,Mostly Cloudy,0,2013-11-03 06:15:00
1:35 AM,42.8,41.0,93,30.16,10.0,Calm,Calm,-,N/A,,Overcast,0,2013-11-03 06:35:00
1:55 AM,42.8,41.0,93,30.16,10.0,Calm,Calm,-,N/A,,Overcast,0,2013-11-03 06:55:00
2:15 AM,41.0,41.0,100,30.16,10.0,Calm,Calm,-,N/A,,Overcast,0,2013-11-03 07:15:00
2:35 AM,41.0,41.0,100,30.16,10.0,Calm,Calm,-,N/A,,Scattered Clouds,0,2013-11-03 07:35:00
2:55 AM,41.0,41.0,100,30.17,10.0,Calm,Calm,-,N/A,,Mostly Cloudy,0,2013-11-03 07:55:00
3:15 AM,41.0,41.0,100,30.17,10.0,Calm,Calm,-,N/A,,Overcast,0,2013-11-03 08:15:00
3:35 AM,41.0,39.2,93,30.18,10.0,Calm,Calm,-,N/A,,Overcast,0,2013-11-03 08:35:00
3:55 AM,41.0,39.2,93,30.18,10.0,Calm,Calm,-,N/A,,Overcast,0,2013-11-03 08:55:00
4:15 AM,41.0,39.2,93,30.20,10.0,Calm,Calm,-,N/A,,Overcast,0,2013-11-03 09:15:00
4:35 AM,39.2,39.2,100,30.20,10.0,NW,3.5,-,N/A,,Overcast,310,2013-11-03 09:35:00
4:55 AM,39.2,37.4,93,30.21,10.0,Calm,Calm,-,N/A,,Overcast,0,2013-11-03 09:55:00
5:15 AM,39.2,37.4,93,30.22,10.0,Calm,Calm,-,N/A,,Overcast,0,2013-11-03 10:15:00
5:35 AM,41.0,37.4,87,30.22,10.0,Calm,Calm,-,N/A,,Overcast,0,2013-11-03 10:35:00
5:55 AM,41.0,37.4,87,30.22,10.0,North,4.6,-,N/A,,Overcast,360,2013-11-03 10:55:00
6:15 AM,39.2,35.6,87,30.23,10.0,North,4.6,-,N/A,,Overcast,360,2013-11-03 11:15:00
6:35 AM,41.0,35.6,81,30.24,10.0,North,3.5,-,N/A,,Overcast,360,2013-11-03 11:35:00
6:55 AM,39.2,35.6,87,30.25,10.0,Calm,Calm,-,N/A,,Overcast,0,2013-11-03 11:55:00
7:15 AM,39.2,35.6,87,30.26,10.0,Calm,Calm,-,N/A,,Mostly Cloudy,0,2013-11-03 12:15:00
7:35 AM,39.2,33.8,81,30.27,10.0,Calm,Calm,-,N/A,,Mostly Cloudy,0,2013-11-03 12:35:00
7:55 AM,39.2,33.8,81,30.28,10.0,Calm,Calm,-,N/A,,Mostly Cloudy,0,2013-11-03 12:55:00
8:15 AM,41.0,35.6,81,30.29,10.0,Calm,Calm,-,N/A,,Overcast,0,2013-11-03 13:15:00
8:35 AM,41.0,33.8,76,30.30,10.0,North,3.5,-,N/A,,Scattered Clouds,10,2013-11-03 13:35:00
8:55 AM,42.8,35.6,76,30.31,10.0,Calm,Calm,-,N/A,,Clear,0,2013-11-03 13:55:00
9:15 AM,44.6,35.6,71,30.32,10.0,NE,3.5,-,N/A,,Clear,50,2013-11-03 14:15:00
9:35 AM,44.6,35.6,71,30.32,10.0,NNE,4.6,-,N/A,,Clear,30,2013-11-03 14:35:00
9:55 AM,46.4,37.4,71,30.32,10.0,East,5.8,-,N/A,,Clear,100,2013-11-03 14:55:00
10:15 AM,46.4,37.4,71,30.32,10.0,NE,4.6,-,N/A,,Scattered Clouds,40,2013-11-03 15:15:00
10:35 AM,48.2,37.4,66,30.33,10.0,NE,3.5,-,N/A,,Clear,50,2013-11-03 15:35:00
10:55 AM,50.0,37.4,62,30.33,10.0,Calm,Calm,-,N/A,,Clear,0,2013-11-03 15:55:00
11:15 AM,48.2,35.6,62,30.33,10.0,Calm,Calm,-,N/A,,Scattered Clouds,0,2013-11-03 16:15:00
11:35 AM,48.2,35.6,62,30.33,10.0,Calm,Calm,-,N/A,,Scattered Clouds,0,2013-11-03 16:35:00
11:55 AM,51.8,35.6,54,30.33,10.0,ESE,6.9,-,N/A,,Mostly Cloudy,120,2013-11-03 16:55:00
12:15 PM,50.0,33.8,54,30.33,10.0,Calm,Calm,-,N/A,,Overcast,0,2013-11-03 17:15:00
12:35 PM,50.0,35.6,58,30.33,10.0,NE,4.6,-,N/A,,Overcast,40,2013-11-03 17:35:00
12:55 PM,50.0,33.8,54,30.32,10.0,Calm,Calm,-,N/A,,Mostly Cloudy,0,2013-11-03 17:55:00
1:15 PM,53.6,33.8,47,30.31,10.0,Calm,Calm,-,N/A,,Mostly Cloudy,0,2013-11-03 18:15:00
1:35 PM,50.0,33.8,54,30.30,10.0,East,3.5,-,N/A,,Mostly Cloudy,80,2013-11-03 18:35:00
1:55 PM,51.8,33.8,50,30.29,10.0,Calm,Calm,-,N/A,,Scattered Clouds,0,2013-11-03 18:55:00
2:15 PM,53.6,35.6,51,30.28,10.0,ENE,8.1,-,N/A,,Mostly Cloudy,70,2013-11-03 19:15:00
2:35 PM,53.6,33.8,47,30.28,10.0,East,3.5,-,N/A,,Scattered Clouds,100,2013-11-03 19:35:00
2:55 PM,53.6,33.8,47,30.28,10.0,Calm,Calm,-,N/A,,Mostly Cloudy,0,2013-11-03 19:55:00
3:15 PM,51.8,33.8,50,30.28,10.0,NE,5.8,-,N/A,,Scattered Clouds,50,2013-11-03 20:15:00
3:35 PM,53.6,32.0,44,30.28,10.0,Calm,Calm,-,N/A,,Clear,0,2013-11-03 20:35:00
3:55 PM,53.6,32.0,44,30.28,10.0,SE,5.8,-,N/A,,Mostly Cloudy,140,2013-11-03 20:55:00
4:15 PM,53.6,33.8,47,30.28,10.0,ESE,3.5,-,N/A,,Overcast,110,2013-11-03 21:15:00
4:35 PM,53.6,32.0,44,30.29,10.0,NE,8.1,-,N/A,,Mostly Cloudy,50,2013-11-03 21:35:00
4:55 PM,51.8,32.0,47,30.29,10.0,East,5.8,-,N/A,,Scattered Clouds,90,2013-11-03 21:55:00
5:15 PM,51.8,32.0,47,30.29,10.0,East,3.5,-,N/A,,Clear,80,2013-11-03 22:15:00
5:35 PM,50.0,32.0,50,30.30,10.0,Calm,Calm,-,N/A,,Clear,0,2013-11-03 22:35:00
5:55 PM,48.2,32.0,54,30.29,10.0,Calm,Calm,-,N/A,,Clear,0,2013-11-03 22:55:00
6:15 PM,46.4,32.0,57,30.29,10.0,Calm,Calm,-,N/A,,Clear,0,2013-11-03 23:15:00
6:35 PM,46.4,32.0,57,30.29,10.0,Calm,Calm,-,N/A,,Clear,0,2013-11-03 23:35:00
6:55 PM,44.6,33.8,66,30.30,10.0,Calm,Calm,-,N/A,,Clear,0,2013-11-03 23:55:00
7:15 PM,42.8,33.8,70,30.30,10.0,Calm,Calm,-,N/A,,Clear,0,2013-11-04 00:15:00
7:35 PM,42.8,33.8,70,30.31,10.0,Calm,Calm,-,N/A,,Clear,0,2013-11-04 00:35:00
7:55 PM,41.0,33.8,76,30.30,10.0,Calm,Calm,-,N/A,,Clear,0,2013-11-04 00:55:00
8:15 PM,41.0,33.8,76,30.29,10.0,SE,3.5,-,N/A,,Clear,130,2013-11-04 01:15:00
8:35 PM,41.0,33.8,76,30.30,10.0,Calm,Calm,-,N/A,,Clear,0,2013-11-04 01:35:00
8:55 PM,42.8,33.8,70,30.30,10.0,Calm,Calm,-,N/A,,Clear,0,2013-11-04 01:55:00
9:15 PM,42.8,33.8,70,30.30,10.0,Calm,Calm,-,N/A,,Clear,0,2013-11-04 02:15:00
9:35 PM,42.8,32.0,66,30.33,10.0,Calm,Calm,-,N/A,,Clear,0,2013-11-04 02:35:00
9:55 PM,42.8,32.0,66,30.34,10.0,ENE,3.5,-,N/A,,Clear,70,2013-11-04 02:55:00
10:15 PM,41.0,32.0,70,30.33,10.0,ENE,3.5,-,N/A,,Clear,70,2013-11-04 03:15:00
10:35 PM,41.0,32.0,70,30.33,10.0,Calm,Calm,-,N/A,,Clear,0,2013-11-04 03:35:00
10:55 PM,39.2,32.0,75,30.33,10.0,Calm,Calm,-,N/A,,Clear,0,2013-11-04 03:55:00